2023-117B (57581 NORAD) Tracking and Keplerian Element Data

This shows tracking and keplerian element data for the satellite.

Feedback or suggestion? Click here.




ElementValue
Catalog57581
Name2023-117B
Epoch Orbit256
Epoch Day239.16426658
Epoch Year2023
RAAN310.7736
Inclination97.522
Eccentricity0.0011729
Argument of Perigee229.3757
Mean Anonmoly130.6454
Mean Motion15.11312116
Decay Rate0.00010848
L11 57581U 23117B 23239.16426658 .00010848 00000+0 64628-3 0 9996
L22 57581 97.5220 310.7736 0011729 229.3757 130.6454 15.11312116 2563



Live tracking and technical data element details for 2023-117B (NORAD 57581). 2023-117B can be tracked NOW for your location showing map with azimuth and elevation plus other details from your city location.







IsCatalogInMostPopularTable: catalog: 57581, numindb: 16
Update: records affected: 1



GetName: 57581 2023-117B

Hit Count: updated at: Mon, 04 Dec 2023 03:30:32 GMT